SCP
0 0 0 0 0 0 0 0 0 0 -0 -0 -0 -0 -0 -0 -0 -0 -0 -0 -0 -0 -0 -0 -0 -0 -0 -0 -0 -0 0 0 0 0 0 0 -0 0 0 0 0 0 0
0 0 -0 -0 -0 -0 -0 -0 -0 -0 -0 -0 0 0 -0 -0 -0 -0 -0 -0 -0 -0 -0 -0 -0 -0 -0 -0 -0 0 0 0 0 0 -0 0 0 0 0 0 0 0 0
-0 0 -0 -0 -0 -0 -0 -0 -0 -0 -0 -0 0 0 -0 -0 -0 -0 -0 -0 -0 -0 -0 -0 -0 -0 0 0 0 0 -0 -0 -0 -0 0 0 0 0 0 0 0 0 0
-0 -0 0 0 -0 -0 -0 -0 -0 -0 -0 -0 0 0 -0 -0 -0 -0 -0 0 0 0 -0 -0 -0 -0 -0 -0 -0 -0 -0 -0 -0 0 0 0 0 0 0 0 0 0 0
-0 -0 -0 0 -0 0 -0 -0 -0 -0 -0 0 0 0 -0 -0 -0 -0 -0 -0 -0 -0 0 -0 -0 0 0 0 -0 -0 -0 0 0 0 0 0 0 0 0 0 0 0 0
-0 -0 -0 0 0 0 0 -0 -0 0 -0 -0 -0 -0 -0 -0 -0 0 -0 -0 -0 -0 0 0 -0 -0 -0 0 0 0 -0 0 0 0 0 0 0 0 0 0 0 0 0
-0 -0 -0 -0 0 -0 0 0 0 0 0 -0 -0 -0 -0 -0 -0 -0 -0 -0 -0 -0 -0 0 0 -0 -0 -0 -0 -0 -0 -0 0 0 0 0 0 0 0 0 0 0 0
-0 -0 -0 -0 -0 -0 -0 -0 0 0 -0 -0 -0 -0 -0 -0 -0 -0 -0 -0 -0 -0 -0 -0 -0 -0 -0 -0 -0 -0 -0 0 0 0 0 0 0 0 0 0 0 0 0
-0 -0 -0 -0 -0 -0 -0 -0 -0 -0 -0 -0 -0 -0 -0 -0 -0 -0 -0 -0 -0 -0 -0 -0 -0 -0 -0 -0 -0 -0 -0 0 0 0 0 0 0 0 0 0 0 0 0
-0 0 -0 0 0 0 -0 -0 -0 -0 -0 -0 -0 -0 -0 -0 -0 -0 -0 -0 -0 -0 -0 -0 -0 -0 -0 0 0 0 0 0 0 0 0 0 0 0 0 0 0 0 0
-0 0 0 0 -0 -0 -0 -0 -0 -0 -0 -0 -0 -0 -0 -0 -0 -0 -0 -0 -0 -0 -0 -0 -0 -0 0 0 0 0 0 0 0 0 0 0 0 0 0 0 0 0 0
0 -0 -0 -0 -0 -0 -0 -0 -0 -0 -0 -0 -0 -0 -0 -0 -0 -0 -0 -0 -0 -0 -0 -0 -0 0 0 0 0 0 0 0 0 0 0 0 0 0 0 0 0 0 0
-0 -0 -0 -0 -0 -0 -0 -0 -0 -0 -0 -0 -0 -0 -0 -0 -0 -0 0 0 0 0 0 0 0 0 0 0 0 0 0 0 0 0 0 0 0 0 0 0 0 0 0
-0 -0 -0 -0 -0 -0 -0 -0 -0 -0 -0 -0 -0 -0 -0 0 0 0 0 0 0 0 0 0 0 0 0 0 0 0 0 0 0 0 0 0 0 0 0 0 0 0 0
-0 -0 -0 -0 -0 -0 -0 -0 -0 -0 -0 -0 -0 0 0 0 0 0 0 0 0 0 0 0 0 0 0 0 0 0 0 0 0 0 0 0 0 0 0 0 0 0 0
-0 -0 -0 -0 -0 -0 -0 -0 -0 -0 -0 0 0 0 0 0 0 0 0 0 0 0 0 0 0 0 0 0 0 0 0 0 0 0 0 0 0 0 0 0 0 0 0
-0 -0 -0 -0 -0 -0 -0 -0 -0 -0 0 0 0 0 0 0 0 0 0 0 0 0 0 0 0 0 0 0 0 0 0 0 0 0 0 0 0 0 0 0 0 0 0
-0 -0 -0 -0 -0 -0 -0 0 0 0 0 0 0 0 0 0 0 0 0 0 0 0 0 0 0 0 0 0 0 0 0 0 0 0 0 0 0 0 0 0 0 0 0
0 0 0 0 0 0 0 0 0 0 0 0 0 0 0 0 0 0 0 0 0 0 0 0 0 0 0 0 0 0 0 0 0 0 0 0 0 0 0 0 0 0 0
0 0 0 0 0 0 0 0 0 0 0 0 0 0 0 0 0 0 0 0 0 0 0 0 0 0 0 0 0 0 0 0 0 0 0 0 0 0 0 0 0 0 0
0 0 0 0 0 0 0 0 0 0 0 0 0 0 0 0 0 0 0 0 0 0 0 0 0 0 0 0 0 0 0 0 0 0 0 0 0 0 0 0 0 0 0
0 0 0 0 0 0 0 0 0 0 0 0 0 0 0 0 0 0 0 0 0 0 0 0 0 0 0 0 0 -0 0 0 0 0 0 0 0 0 0 0 0 0 0
0 0 0 0 0 0 0 0 0 0 0 0 0 0 0 0 0 0 0 0 0 0 0 0 0 0 0 0 0 -0 0 0 0 0 0 0 0 0 0 0 0 0 0
0 0 0 0 0 0 0 0 0 0 0 0 0 0 0 0 0 0 0 0 0 0 0 0 0 0 0 0 0 0 0 0 0 0 0 0 0 0 0 0 0 0 0
0 0 0 0 0 0 0 0 0 0 0 0 0 0 0 0 0 0 0 0 0 0 0 0 0 0 0 0 0 0 0 0 0 0 0 0 0 0 0 0 0 0 0
0 0 0 0 0 0 0 0 0 0 0 0 0 0 0 0 0 0 0 0 0 0 0 0 0 0 0 0 0 0 0 0 0 0 0 0 0 0 0 0 0 0 0
Wind_Speed_500mb
37 37 30 26 20 17 27 31 26 25 25 24 24 25 22 17 15 18 22 24 22 24 25 25 25 26 27 27 27 28 28 27 27 27 26 25 24 24 24 22 21 20 17
39 40 31 24 20 23 31 33 26 27 28 26 24 20 14 11 12 14 19 22 22 22 22 22 23 23 23 23 25 26 25 25 23 23 22 23 22 21 21 21 21 19 17
38 38 30 24 23 29 33 33 27 26 26 27 25 21 12 8 9 14 18 18 17 18 20 21 22 21 20 22 23 22 23 23 23 22 20 20 20 18 18 19 19 19 19
38 37 35 32 28 32 34 32 29 25 21 19 15 10 3 4 10 15 16 17 17 19 19 18 18 18 20 21 22 23 23 23 22 20 20 19 18 19 18 18 17 17 18
41 39 38 33 31 31 31 29 28 22 18 14 11 7 4 5 8 9 12 14 17 18 19 19 20 21 22 22 24 24 25 25 23 21 20 20 21 22 22 20 19 18 18
42 40 39 35 32 30 28 26 24 20 15 11 8 5 2 4 7 10 15 15 15 18 19 20 19 19 18 19 20 21 21 22 24 24 24 23 24 24 24 25 25 23 22
43 40 37 33 28 23 22 19 18 16 10 6 4 4 5 7 9 11 12 13 15 15 15 15 16 17 18 19 19 21 24 26 28 29 28 28 29 27 27 27 28 30 29
40 41 36 32 27 21 20 17 17 13 11 10 10 11 11 12 13 12 12 14 14 14 14 14 15 16 17 18 21 23 25 27 28 30 31 32 33 31 31 32 33 34 34
37 39 38 33 27 21 19 18 17 14 14 15 14 13 13 13 13 12 11 12 12 13 14 15 16 17 18 21 22 24 26 28 30 32 32 33 34 34 35 36 37 38 37
35 35 33 29 25 22 20 18 14 14 14 15 14 12 12 11 10 9 8 8 8 9 10 12 14 17 19 21 23 25 28 30 32 34 36 37 39 39 40 40 40 40 43
36 34 31 28 26 23 20 17 15 15 12 11 10 9 7 6 6 8 10 11 12 14 16 17 18 19 20 22 25 29 32 34 36 37 38 40 41 44 45 42 38 40 40
39 36 32 29 26 24 21 17 14 11 11 9 8 6 4 5 6 7 9 11 14 15 16 19 20 22 25 27 28 31 34 37 40 41 42 43 44 46 45 42 42 43 42
34 34 32 30 27 23 20 17 13 11 9 8 6 4 0 2 6 9 11 14 16 20 21 23 25 26 29 32 34 37 39 41 44 45 47 47 48 46 49 46 38 38 44
35 31 30 29 27 24 22 19 16 11 7 4 3 3 6 8 11 14 16 18 21 23 25 28 31 33 35 38 41 44 46 48 50 51 54 52 52 51 48 49 50 49 48
35 33 29 28 26 24 21 18 13 9 5 2 3 7 10 13 15 18 21 23 25 28 30 32 35 38 39 42 44 49 51 52 53 55 56 57 57 55 53 50 53 52 52
34 32 29 27 26 24 20 16 11 7 4 3 6 10 14 17 20 22 24 27 29 31 35 40 42 45 46 50 53 52 54 56 56 56 59 61 61 60 55 50 49 50 52
30 29 28 25 23 20 16 12 8 6 6 8 10 14 18 22 25 28 30 31 31 34 40 45 46 50 50 50 53 54 54 62 59 56 58 59 57 51 45 41 41 40 41
26 24 25 23 19 15 11 9 8 8 9 13 16 20 24 27 31 33 35 32 38 41 43 45 50 50 50 50 52 53 64 57 52 51 48 43 39 40 34 29 32 33 32
22 21 20 20 17 15 13 11 9 11 13 17 21 25 29 32 35 36 36 37 36 38 40 42 42 46 50 55 58 54 52 48 45 37 37 30 28 33 32 27 27 32 38
25 26 24 23 22 19 16 13 12 15 19 24 29 32 34 36 36 35 35 35 31 36 34 40 45 45 47 48 48 47 45 39 33 29 23 30 39 37 37 36 39 41 41
28 26 25 22 21 19 18 17 17 20 24 27 30 32 31 31 32 31 29 29 33 36 36 37 37 36 38 43 44 47 41 37 33 21 41 39 43 43 40 46 48 48 50
30 27 25 24 21 19 19 20 22 23 23 23 23 25 26 26 26 24 23 24 26 28 29 31 34 37 41 47 47 37 27 46 31 60 42 54 47 50 54 52 52 57 57
31 28 26 24 24 22 20 18 18 17 18 18 18 20 18 17 18 20 20 22 24 27 30 34 36 37 40 42 42 28 15 17 55 37 62 48 64 59 60 65 61 60 59
30 27 24 21 19 18 17 15 17 14 12 7 5 5 10 13 15 17 20 22 25 28 30 34 38 40 41 42 42 35 35 36 25 33 23 73 62 70 69 67 64 65 63
29 27 23 20 17 13 8 8 9 9 9 6 6 9 10 13 16 19 21 23 25 29 32 34 35 38 40 39 39 43 45 45 39 38 60 58 88 82 81 79 76 67 61
31 27 24 19 19 20 17 14 12 11 12 10 8 9 11 16 18 19 21 25 28 30 34 37 40 41 41 41 40 40 42 45 48 49 63 83 91 96 95 84 73 66 59
Wind_Direction_500mb
160 163 164 166 173 161 147 141 115 111 123 125 120 120 117 94 68 48 39 52 57 64 65 66 68 70 71 69 67 63 61 60 58 54 50 48 45 41 38 37 35 32 32
158 161 162 166 164 151 150 145 130 112 119 123 122 124 108 83 60 35 37 45 59 63 68 69 68 67 64 65 62 59 55 53 50 45 40 37 35 36 34 30 27 25 24
157 156 151 147 149 148 151 148 139 129 122 122 125 119 101 76 21 22 36 50 61 61 68 63 61 59 56 51 48 46 44 43 40 34 27 21 18 18 25 21 15 9 6
153 150 144 138 127 139 151 152 147 144 139 140 145 146 137 352 353 7 18 39 56 60 64 61 54 51 46 41 34 31 30 29 26 20 14 8 2 1 3 5 0 356 353
152 147 143 136 130 133 142 152 158 157 159 163 178 200 242 309 339 5 28 37 46 55 61 53 44 39 34 28 22 19 16 13 9 5 358 351 349 347 347 344 341 339 337
153 147 146 146 142 137 134 145 153 163 170 179 191 214 272 351 23 42 46 48 50 51 51 47 41 36 29 24 18 11 7 2 356 351 346 342 339 334 332 330 328 325 326
155 152 150 151 150 151 156 157 158 157 155 161 163 145 110 84 76 70 66 64 60 55 49 43 36 31 25 19 10 4 357 352 348 342 339 337 333 324 321 323 321 318 317
158 158 157 162 160 157 155 151 148 136 121 115 111 105 96 89 87 77 67 61 56 51 42 33 23 16 11 4 359 354 347 342 339 336 333 332 329 323 317 316 314 310 307
161 164 166 172 170 162 155 148 145 137 119 111 108 103 97 90 86 80 67 53 38 27 17 10 5 357 356 355 352 347 344 342 339 337 332 327 322 319 314 311 311 309 306
167 170 172 174 172 165 157 154 146 133 120 109 110 109 97 87 80 72 58 43 24 6 354 346 348 345 346 346 343 341 339 338 336 333 330 326 321 319 313 310 309 309 309
172 173 172 173 172 171 169 163 154 146 135 118 108 104 97 82 60 41 20 6 356 349 347 343 343 341 338 338 338 335 334 334 332 331 327 326 321 318 313 312 309 304 302
172 172 172 173 175 176 174 172 164 155 140 128 112 93 73 44 19 4 349 343 340 332 330 328 330 329 329 329 327 326 327 328 327 325 325 327 326 325 322 308 306 307 305
164 168 166 168 171 175 174 173 169 165 162 156 148 146 142 316 318 324 328 320 322 322 324 320 319 318 318 318 318 319 319 318 318 319 319 320 321 320 319 318 311 307 306
168 162 163 165 166 167 169 166 170 169 170 181 228 292 309 314 318 314 317 316 317 315 316 314 313 313 314 314 314 313 314 314 314 313 314 318 316 313 309 304 305 307 302
171 169 167 167 167 168 168 167 161 162 167 213 304 312 316 318 319 318 320 320 323 322 317 312 311 312 313 311 311 311 311 309 311 314 316 317 316 311 306 301 299 296 297
175 175 175 172 173 174 177 172 171 176 213 281 320 311 312 311 314 312 312 317 325 323 322 320 316 314 314 315 315 318 315 314 317 316 315 316 315 311 304 300 301 296 292
177 181 180 181 181 176 177 182 190 224 270 301 303 302 303 304 305 307 310 314 317 317 315 312 313 311 312 310 310 311 313 315 317 318 317 315 313 314 313 306 305 308 307
182 182 184 187 189 188 192 212 230 260 287 294 296 299 300 300 300 303 307 312 313 312 309 310 309 309 307 305 306 309 309 315 320 318 319 322 322 324 325 320 317 319 318
186 190 190 193 199 204 210 225 247 272 284 293 297 299 301 303 304 308 308 306 301 305 307 308 307 308 309 308 309 313 317 321 321 320 322 322 333 334 330 323 312 309 310
198 202 202 204 205 215 225 237 254 271 281 287 291 295 299 301 303 306 308 307 301 306 304 303 306 310 312 313 316 319 322 326 326 321 325 326 322 321 320 313 304 300 302
208 214 215 215 218 224 233 243 256 266 277 286 291 295 298 303 307 313 315 312 311 311 316 318 321 321 321 323 329 328 333 331 328 322 321 317 321 317 318 315 313 311 312
214 217 220 223 228 233 243 252 260 267 270 276 285 292 300 307 315 320 323 322 320 321 325 329 334 336 337 340 344 351 340 336 319 322 327 324 325 323 320 319 317 315 314
217 214 218 222 228 238 249 251 254 260 264 270 280 293 308 322 331 335 337 337 339 337 340 342 343 344 342 343 344 348 334 308 316 325 323 320 323 320 320 317 316 315 315
201 205 209 212 217 222 233 252 257 245 234 232 273 324 345 348 349 350 350 350 351 348 347 350 349 345 344 342 341 335 323 316 316 315 313 319 318 319 315 314 317 318 320
182 186 187 194 206 214 194 166 146 145 122 97 54 26 6 359 358 357 356 357 357 359 358 355 351 345 341 336 333 329 324 322 326 308 314 312 317 315 316 318 319 320 319
165 172 175 161 151 136 125 118 116 97 83 68 42 20 4 3 3 3 7 6 1 353 346 342 339 332 327 325 324 324 325 326 322 319 314 315 314 316 314 316 321 326 326
Wind_Speed_850mb
37 37 30 26 20 17 27 31 26 25 25 24 24 25 22 17 15 18 22 24 22 24 25 25 25 26 27 27 27 28 28 27 27 27 26 25 24 24 24 22 21 20 17
39 40 31 24 20 23 31 33 26 27 28 26 24 20 14 11 12 14 19 22 22 22 22 22 23 23 23 23 25 26 25 25 23 23 22 23 22 21 21 21 21 19 17
38 38 30 24 23 29 33 33 27 26 26 27 25 21 12 8 9 14 18 18 17 18 20 21 22 21 20 22 23 22 23 23 23 22 20 20 20 18 18 19 19 19 19
38 37 35 32 28 32 34 32 29 25 21 19 15 10 3 4 10 15 16 17 17 19 19 18 18 18 20 21 22 23 23 23 22 20 20 19 18 19 18 18 17 17 18
41 39 38 33 31 31 31 29 28 22 18 14 11 7 4 5 8 9 12 14 17 18 19 19 20 21 22 22 24 24 25 25 23 21 20 20 21 22 22 20 19 18 18
42 40 39 35 32 30 28 26 24 20 15 11 8 5 2 4 7 10 15 15 15 18 19 20 19 19 18 19 20 21 21 22 24 24 24 23 24 24 24 25 25 23 22
43 40 37 33 28 23 22 19 18 16 10 6 4 4 5 7 9 11 12 13 15 15 15 15 16 17 18 19 19 21 24 26 28 29 28 28 29 27 27 27 28 30 29
40 41 36 32 27 21 20 17 17 13 11 10 10 11 11 12 13 12 12 14 14 14 14 14 15 16 17 18 21 23 25 27 28 30 31 32 33 31 31 32 33 34 34
37 39 38 33 27 21 19 18 17 14 14 15 14 13 13 13 13 12 11 12 12 13 14 15 16 17 18 21 22 24 26 28 30 32 32 33 34 34 35 36 37 38 37
35 35 33 29 25 22 20 18 14 14 14 15 14 12 12 11 10 9 8 8 8 9 10 12 14 17 19 21 23 25 28 30 32 34 36 37 39 39 40 40 40 40 43
36 34 31 28 26 23 20 17 15 15 12 11 10 9 7 6 6 8 10 11 12 14 16 17 18 19 20 22 25 29 32 34 36 37 38 40 41 44 45 42 38 40 40
39 36 32 29 26 24 21 17 14 11 11 9 8 6 4 5 6 7 9 11 14 15 16 19 20 22 25 27 28 31 34 37 40 41 42 43 44 46 45 42 42 43 42
34 34 32 30 27 23 20 17 13 11 9 8 6 4 0 2 6 9 11 14 16 20 21 23 25 26 29 32 34 37 39 41 44 45 47 47 48 46 49 46 38 38 44
35 31 30 29 27 24 22 19 16 11 7 4 3 3 6 8 11 14 16 18 21 23 25 28 31 33 35 38 41 44 46 48 50 51 54 52 52 51 48 49 50 49 48
35 33 29 28 26 24 21 18 13 9 5 2 3 7 10 13 15 18 21 23 25 28 30 32 35 38 39 42 44 49 51 52 53 55 56 57 57 55 53 50 53 52 52
34 32 29 27 26 24 20 16 11 7 4 3 6 10 14 17 20 22 24 27 29 31 35 40 42 45 46 50 53 52 54 56 56 56 59 61 61 60 55 50 49 50 52
30 29 28 25 23 20 16 12 8 6 6 8 10 14 18 22 25 28 30 31 31 34 40 45 46 50 50 50 53 54 54 62 59 56 58 59 57 51 45 41 41 40 41
26 24 25 23 19 15 11 9 8 8 9 13 16 20 24 27 31 33 35 32 38 41 43 45 50 50 50 50 52 53 64 57 52 51 48 43 39 40 34 29 32 33 32
22 21 20 20 17 15 13 11 9 11 13 17 21 25 29 32 35 36 36 37 36 38 40 42 42 46 50 55 58 54 52 48 45 37 37 30 28 33 32 27 27 32 38
25 26 24 23 22 19 16 13 12 15 19 24 29 32 34 36 36 35 35 35 31 36 34 40 45 45 47 48 48 47 45 39 33 29 23 30 39 37 37 36 39 41 41
28 26 25 22 21 19 18 17 17 20 24 27 30 32 31 31 32 31 29 29 33 36 36 37 37 36 38 43 44 47 41 37 33 21 41 39 43 43 40 46 48 48 50
30 27 25 24 21 19 19 20 22 23 23 23 23 25 26 26 26 24 23 24 26 28 29 31 34 37 41 47 47 37 27 46 31 60 42 54 47 50 54 52 52 57 57
31 28 26 24 24 22 20 18 18 17 18 18 18 20 18 17 18 20 20 22 24 27 30 34 36 37 40 42 42 28 15 17 55 37 62 48 64 59 60 65 61 60 59
30 27 24 21 19 18 17 15 17 14 12 7 5 5 10 13 15 17 20 22 25 28 30 34 38 40 41 42 42 35 35 36 25 33 23 73 62 70 69 67 64 65 63
29 27 23 20 17 13 8 8 9 9 9 6 6 9 10 13 16 19 21 23 25 29 32 34 35 38 40 39 39 43 45 45 39 38 60 58 88 82 81 79 76 67 61
31 27 24 19 19 20 17 14 12 11 12 10 8 9 11 16 18 19 21 25 28 30 34 37 40 41 41 41 40 40 42 45 48 49 63 83 91 96 95 84 73 66 59
Wind_Direction_850mb
160 163 164 166 173 161 147 141 115 111 123 125 120 120 117 94 68 48 39 52 57 64 65 66 68 70 71 69 67 63 61 60 58 54 50 48 45 41 38 37 35 32 32
158 161 162 166 164 151 150 145 130 112 119 123 122 124 108 83 60 35 37 45 59 63 68 69 68 67 64 65 62 59 55 53 50 45 40 37 35 36 34 30 27 25 24
157 156 151 147 149 148 151 148 139 129 122 122 125 119 101 76 21 22 36 50 61 61 68 63 61 59 56 51 48 46 44 43 40 34 27 21 18 18 25 21 15 9 6
153 150 144 138 127 139 151 152 147 144 139 140 145 146 137 352 353 7 18 39 56 60 64 61 54 51 46 41 34 31 30 29 26 20 14 8 2 1 3 5 0 356 353
152 147 143 136 130 133 142 152 158 157 159 163 178 200 242 309 339 5 28 37 46 55 61 53 44 39 34 28 22 19 16 13 9 5 358 351 349 347 347 344 341 339 337
153 147 146 146 142 137 134 145 153 163 170 179 191 214 272 351 23 42 46 48 50 51 51 47 41 36 29 24 18 11 7 2 356 351 346 342 339 334 332 330 328 325 326
155 152 150 151 150 151 156 157 158 157 155 161 163 145 110 84 76 70 66 64 60 55 49 43 36 31 25 19 10 4 357 352 348 342 339 337 333 324 321 323 321 318 317
158 158 157 162 160 157 155 151 148 136 121 115 111 105 96 89 87 77 67 61 56 51 42 33 23 16 11 4 359 354 347 342 339 336 333 332 329 323 317 316 314 310 307
161 164 166 172 170 162 155 148 145 137 119 111 108 103 97 90 86 80 67 53 38 27 17 10 5 357 356 355 352 347 344 342 339 337 332 327 322 319 314 311 311 309 306
167 170 172 174 172 165 157 154 146 133 120 109 110 109 97 87 80 72 58 43 24 6 354 346 348 345 346 346 343 341 339 338 336 333 330 326 321 319 313 310 309 309 309
172 173 172 173 172 171 169 163 154 146 135 118 108 104 97 82 60 41 20 6 356 349 347 343 343 341 338 338 338 335 334 334 332 331 327 326 321 318 313 312 309 304 302
172 172 172 173 175 176 174 172 164 155 140 128 112 93 73 44 19 4 349 343 340 332 330 328 330 329 329 329 327 326 327 328 327 325 325 327 326 325 322 308 306 307 305
164 168 166 168 171 175 174 173 169 165 162 156 148 146 142 316 318 324 328 320 322 322 324 320 319 318 318 318 318 319 319 318 318 319 319 320 321 320 319 318 311 307 306
168 162 163 165 166 167 169 166 170 169 170 181 228 292 309 314 318 314 317 316 317 315 316 314 313 313 314 314 314 313 314 314 314 313 314 318 316 313 309 304 305 307 302
171 169 167 167 167 168 168 167 161 162 167 213 304 312 316 318 319 318 320 320 323 322 317 312 311 312 313 311 311 311 311 309 311 314 316 317 316 311 306 301 299 296 297
175 175 175 172 173 174 177 172 171 176 213 281 320 311 312 311 314 312 312 317 325 323 322 320 316 314 314 315 315 318 315 314 317 316 315 316 315 311 304 300 301 296 292
177 181 180 181 181 176 177 182 190 224 270 301 303 302 303 304 305 307 310 314 317 317 315 312 313 311 312 310 310 311 313 315 317 318 317 315 313 314 313 306 305 308 307
182 182 184 187 189 188 192 212 230 260 287 294 296 299 300 300 300 303 307 312 313 312 309 310 309 309 307 305 306 309 309 315 320 318 319 322 322 324 325 320 317 319 318
186 190 190 193 199 204 210 225 247 272 284 293 297 299 301 303 304 308 308 306 301 305 307 308 307 308 309 308 309 313 317 321 321 320 322 322 333 334 330 323 312 309 310
198 202 202 204 205 215 225 237 254 271 281 287 291 295 299 301 303 306 308 307 301 306 304 303 306 310 312 313 316 319 322 326 326 321 325 326 322 321 320 313 304 300 302
208 214 215 215 218 224 233 243 256 266 277 286 291 295 298 303 307 313 315 312 311 311 316 318 321 321 321 323 329 328 333 331 328 322 321 317 321 317 318 315 313 311 312
214 217 220 223 228 233 243 252 260 267 270 276 285 292 300 307 315 320 323 322 320 321 325 329 334 336 337 340 344 351 340 336 319 322 327 324 325 323 320 319 317 315 314
217 214 218 222 228 238 249 251 254 260 264 270 280 293 308 322 331 335 337 337 339 337 340 342 343 344 342 343 344 348 334 308 316 325 323 320 323 320 320 317 316 315 315
201 205 209 212 217 222 233 252 257 245 234 232 273 324 345 348 349 350 350 350 351 348 347 350 349 345 344 342 341 335 323 316 316 315 313 319 318 319 315 314 317 318 320
182 186 187 194 206 214 194 166 146 145 122 97 54 26 6 359 358 357 356 357 357 359 358 355 351 345 341 336 333 329 324 322 326 308 314 312 317 315 316 318 319 320 319
165 172 175 161 151 136 125 118 116 97 83 68 42 20 4 3 3 3 7 6 1 353 346 342 339 332 327 325 324 324 325 326 322 319 314 315 314 316 314 316 321 326 326